Location: Krakow
(50.0830°N, 19.9170°E)
Time: 14:40:36
(UTC+01:00)

Transit 2A Rocket - Visible Passes

Search period start: 27 January 2023 00:00
Search period end: 06 February 2023 00:00
Orbit: 585 x 914 km, 66.7° (Epoch: 26 January)

Date Brightness Start Highest point End Pass type
(mag) Time Alt. Az. Time Alt. Az. Time Alt. Az.
27 Jan 7.6 03:14:01 14° NNE 03:14:01 14° NNE 03:14:58 10° NNE visible
27 Jan 7.1 04:53:52 15° NNW 04:54:37 15° N 04:57:57 10° NNE visible
27 Jan 7.2 06:35:36 10° NNW 06:39:30 18° NNE 06:43:33 10° ENE visible
28 Jan 7.2 04:11:54 16° N 04:11:54 16° N 04:14:37 10° NNE visible
28 Jan 7.3 05:52:22 10° NNW 05:55:50 16° N 05:59:26 10° NE visible
29 Jan 7.5 03:29:54 15° NNE 03:29:54 15° NNE 03:31:26 10° NNE visible
29 Jan 7.2 05:09:46 12° NNW 05:12:07 15° N 05:15:26 10° NE visible
30 Jan 7.9 02:47:55 12° NNE 02:47:55 12° NNE 02:48:22 10° NNE visible
30 Jan 7.2 04:27:46 15° N 04:28:23 15° N 04:31:40 10° NNE visible
30 Jan 7.1 06:08:59 10° NNW 06:13:13 20° NNE 06:17:36 10° ENE visible
31 Jan 7.4 03:45:46 15° N 03:45:46 15° N 03:48:11 10° NNE visible
31 Jan 7.3 05:25:50 10° NNW 05:29:35 17° NNE 05:33:28 10° NE visible
01 Feb 7.7 03:03:46 13° NNE 03:03:46 13° NNE 03:04:55 10° NNE visible
01 Feb 7.3 04:43:37 13° NNW 04:45:53 16° N 04:49:22 10° NE visible
01 Feb 6.8 06:25:22 10° NNW 06:30:25 29° NNE 06:35:39 10° E visible
02 Feb 8.1 02:21:45 10° NNE 02:21:45 10° NNE 02:21:46 10° NNE visible
02 Feb 7.3 04:01:36 15° N 04:02:09 15° N 04:05:28 10° NE visible
02 Feb 7.1 05:42:20 10° NNW 05:46:54 23° NNE 05:51:37 10° ENE visible
03 Feb 7.5 03:19:36 15° N 03:19:36 15° N 03:21:49 10° NNE visible
03 Feb 7.3 04:59:27 11° NNW 05:03:18 19° NNE 05:07:30 10° ENE visible
04 Feb 7.9 02:37:35 12° NNE 02:37:35 12° NNE 02:38:25 10° NNE visible
04 Feb 7.3 04:17:27 14° NNW 04:19:37 17° NNE 04:23:21 10° NE visible
04 Feb 6.7 05:58:41 10° NNW 06:04:01 33° NE 06:09:29 10° E visible
05 Feb 7.4 03:35:26 15° N 03:35:54 15° N 03:39:20 10° NE visible
05 Feb 7.0 05:15:39 10° NNW 05:20:33 26° NNE 05:25:35 10° E visible
